Regional Weather Roundup
Issued by NWS Sioux Falls, SD

Home | Current Version | Previous Version | Text Only | Print | Product List | Glossary Off
Versions: 1 2 3 4 5 6 7 8 9 10 11 12 13 14 15 16 17 18 19 20 21 22 23 24 25 26 27 28 29 30 31 32 33 34 35 36 37 38 39 40 41 42 43 44 45 46 47 48 49 50

000
ASUS43 KFSD 251802
RWRFSD

WEATHER ROUNDUP FOR SE SOUTH DAKOTA/SW MINNESOTA/NW IOWA
NATIONAL WEATHER SERVICE SIOUX FALLS SD
100 PM CDT TUE APR 25 2017

NOTE: "FAIR" INDICATES FEW OR NO CLOUDS BELOW 12,000 FEET WITH NO
SIGNIFICANT WEATHER AND OR OBSTRUCTIONS TO VISIBILITY.


SDZ038>040-050-052>070-251900-
SOUTHEAST SOUTH DAKOTA

CITY           SKY/WX    TMP DP  RH WIND       PRES   REMARKS
BROOKINGS      CLOUDY    38  35  89 N20       29.60F
CHAMBERLAIN    CLOUDY    39  34  81 NW17G25   29.67S
6HR MIN TEMP:  36; 6HR MAX TEMP:  40;

HURON          CLOUDY    38  33  82 N22G28    29.66F
6HR MIN TEMP:  34; 6HR MAX TEMP:  38;

MADISON        CLOUDY    39  39 100 N21G26    29.59F
MITCHELL       CLOUDY    42  34  73 N24       29.64F
6HR MIN TEMP:  37; 6HR MAX TEMP:  42;

SIOUX FALLS    LGT RAIN  41  39  93 N14       29.58F
6HR MIN TEMP:  40; 6HR MAX TEMP:  43; 6HR PCP:  0.02;

WINNER         CLOUDY    37  31  78 N14G23    29.69R
YANKTON        CLOUDY    41  37  87 N16       29.58F
$$

MNZ071-072-080-081-089-090-097-098-251900-
SOUTHWEST MINNESOTA

CITY           SKY/WX    TMP DP  RH WIND       PRES   REMARKS
FAIRMONT       LGT RAIN  41  40  96 N20       29.55F
JACKSON        LGT SNOW  37  37 100 N14G20    29.54F
LUVERNE        LGT RAIN  39  36  87 N15       29.56F
MARSHALL       CLOUDY    40  37  89 NW15      29.62F
6HR MIN TEMP:  36; 6HR MAX TEMP:  40; 6HR PCP: TRACE;

MONTEVIDEO     CLOUDY    43  43 100 N13G20    29.61S
PIPESTONE      CLOUDY    39  34  81 N13       29.58F
REDWOOD FALLS  CLOUDY    44  39  82 NW12      29.59F
TRACY          CLOUDY    40  38  93 NW13      29.62S
WINDOM         LGT RAIN  39  37  93 NW14      29.59F
WORTHINGTON    LGT RAIN  38  37  97 N18G25    29.55F
$$

IAZ001>003-012>014-020>022-031-032-NEZ013-014-SDZ071-251900-
NORTHWEST IOWA

CITY           SKY/WX    TMP DP  RH WIND       PRES   REMARKS
CHEROKEE       CLOUDY    45  43  93 NE3       29.56R
DENISON        CLOUDY    50  45  81 NE13      29.53F
ESTHERVILLE    LGT RAIN  40  40 100 N23G32    29.51F
LE MARS        LGT RAIN  43  41  93 N13G18    29.59R
ORANGE CITY    CLOUDY    43  41  93 N15       29.56R
SHELDON        CLOUDY    41  39  93 N22       29.52R
SIOUX CITY     CLOUDY    45  42  89 N17       29.57F
6HR MIN TEMP:  43; 6HR MAX TEMP:  45; 6HR PCP:  0.03;

SPENCER        CLOUDY    43  41  93 N22       29.52R
6HR MIN TEMP:  40; 6HR MAX TEMP:  43; 6HR PCP:  0.08;

STORM LAKE     CLOUDY    45  41  87 NE8       29.55R
$$

ABBREVIATIONS USED IN REMARKS
   TC - TEMPERATURE IN CELSIUS
  WCI - WIND CHILL INDEX
   HX - HEAT INDEX
  VSB - VISIBILITY





USA.gov is the U.S. government's official web portal to all federal, state and local government web resources and services.